Location: Brusselsch Zeekanaal
(50.8667°N, 4.3667°E)
Time: 23:36:25
(UTC+00:00)

USA 238 DEB - Pass Details

Date: 08 November 2025
Orbit: 886 x 1325 km, 63.4° (Epoch: 24 November)

Event Time Altitude Azimuth Distance (km) Brightness Sun altitude
Exits shadow 03:33:05 51° 348° (NNW) 1,284 4.0 -30.6°
Drops below altitude 10° 03:39:11 10° 43° (NE) 2,974 6.6 -29.6°
Sets 03:42:07 0° 48° (NE) 4,005 7.5 -29.2°
